DW4604 Weather Reports


time (UTC)temp
C
wind
direction
speed
KPH
gust
KPH
rain 1hr
cm
rain 24hr
cm
rain mn
cm
humidity
%
barometer
mb
20260904150943 24 0 0.0 0.0 0.00 0.00 0.00 69 1010.0
20260904150443 24 0 0.0 0.0 0.00 0.00 0.00 69 1010.1
20260904145943 24 0 0.0 0.0 0.00 0.00 0.00 69 1010.1
20260904145443 24 0 0.0 0.0 0.00 0.00 0.00 68 1010.2
20260904144444 24 0 0.0 0.0 0.00 0.00 0.00 69 1010.3
20260904143443 23 0 0.0 0.0 0.00 0.00 0.00 68 1010.5
20260904142945 23 0 0.0 0.0 0.00 0.00 0.00 70 1010.5
20260904141943 23 0 0.0 0.0 0.00 0.00 0.00 70 1010.7
20260904141444 23 0 0.0 0.0 0.00 0.00 0.00 70 1010.7
20260904140443 23 0 0.0 0.0 0.00 0.00 0.00 71 1010.8
20260904135443 25 0 0.0 0.0 0.00 0.00 0.00 69 1010.7
20260904134943 25 0 0.0 0.0 0.00 0.00 0.00 69 1010.9
20260904134444 25 0 0.0 0.0 0.00 0.00 0.00 67 1011.0
20260904133944 25 0 0.0 0.0 0.00 0.00 0.00 70 1010.9
20260904133444 24 0 0.0 0.0 0.00 0.00 0.00 68 1011.2
20260904132944 24 0 0.0 0.0 0.00 0.00 0.00 68 1011.1
20260904131944 24 0 0.0 0.0 0.00 0.00 0.00 67 1011.2
20260904130943 25 0 0.0 0.0 0.00 0.00 0.00 69 1011.4
20260904130443 24 0 0.0 0.0 0.00 0.00 0.00 71 1011.5
20260904125444 23 0 0.0 0.0 0.00 0.00 0.00 72 1011.6
20260904124944 23 0 0.0 0.0 0.00 0.00 0.00 72 1011.5
20260904124444 23 0 0.0 0.0 0.00 0.00 0.00 72 1011.7
20260904123944 23 0 0.0 0.0 0.00 0.00 0.00 71 1011.8
20260904122944 23 0 0.0 0.0 0.00 0.00 0.00 72 1012.0
20260904121944 23 0 0.0 0.0 0.00 0.00 0.00 70 1012.1
20260904121444 23 0 0.0 0.0 0.00 0.00 0.00 71 1012.2
20260904120944 23 0 0.0 0.0 0.00 0.00 0.00 72 1012.2
20260904120444 23 0 0.0 0.0 0.00 0.00 0.00 71 1012.3
20260904115944 23 0 0.0 0.0 0.00 0.00 0.00 71 1012.4
20260904115443 23 0 0.0 0.0 0.00 0.00 0.00 69 1012.5
20260904114943 23 0 0.0 0.0 0.00 0.00 0.00 71 1012.7
20260904114443 22 0 0.0 0.0 0.00 0.00 0.00 72 1012.6
20260904113943 22 0 0.0 0.0 0.00 0.00 0.00 71 1012.7
20260904113443 23 0 0.0 0.0 0.00 0.00 0.00 69 1012.9
20260904112946 23 0 0.0 0.0 0.00 0.00 0.00 67 1012.8
20260904112444 24 0 0.0 0.0 0.00 0.00 0.00 65 1012.9
20260904111943 24 0 0.0 0.0 0.00 0.00 0.00 66 1013.1
20260904111444 23 0 0.0 0.0 0.00 0.00 0.00 66 1013.1
20260904110443 23 0 0.0 0.0 0.00 0.00 0.00 68 1013.1
20260904105444 24 0 0.0 0.0 0.00 0.00 0.00 66 1013.3
20260904104944 23 0 0.0 0.0 0.00 0.00 0.00 67 1013.2
20260904104443 23 0 0.0 0.0 0.00 0.00 0.00 68 1013.2
20260904103944 23 0 0.0 0.0 0.00 0.00 0.00 70 1013.4
20260904103444 22 0 0.0 0.0 0.00 0.00 0.00 73 1013.4
20260904102944 22 0 0.0 0.0 0.00 0.00 0.00 72 1013.5
20260904102443 22 0 0.0 0.0 0.00 0.00 0.00 72 1013.5
20260904101944 22 0 0.0 0.0 0.00 0.00 0.00 72 1013.7
20260904101443 21 0 0.0 0.0 0.00 0.00 0.00 72 1013.8
20260904100944 21 0 0.0 0.0 0.00 0.00 0.00 72 1013.8
20260904100444 21 0 0.0 0.0 0.00 0.00 0.00 73 1013.8
20260904095944 21 0 0.0 0.0 0.00 0.00 0.00 72 1013.8
20260904095444 21 0 0.0 0.0 0.00 0.00 0.00 72 1013.9
20260904094944 21 0 0.0 0.0 0.00 0.00 0.00 72 1014.0
20260904094444 22 0 0.0 0.0 0.00 0.00 0.00 71 1014.1
20260904093943 22 0 0.0 0.0 0.00 0.00 0.00 69 1014.2
20260904093444 22 0 0.0 0.0 0.00 0.00 0.00 71 1014.2
20260904092944 22 0 0.0 0.0 0.00 0.00 0.00 74 1014.2
20260904092444 22 0 0.0 0.0 0.00 0.00 0.00 73 1014.3
20260904091944 21 0 0.0 0.0 0.00 0.00 0.00 73 1014.4
20260904091444 21 0 0.0 0.0 0.00 0.00 0.00 73 1014.4
20260904090944 21 0 0.0 0.0 0.00 0.00 0.00 73 1014.6
20260904090444 21 0 0.0 0.0 0.00 0.00 0.00 73 1014.6
20260904085444 21 0 0.0 0.0 0.00 0.00 0.00 74 1014.5
20260904084944 21 0 0.0 0.0 0.00 0.00 0.00 75 1014.5
20260904084444 21 0 0.0 0.0 0.00 0.00 0.00 76 1014.6
20260904083945 21 0 0.0 0.0 0.00 0.00 0.00 75 1014.7
20260904083445 21 0 0.0 0.0 0.00 0.00 0.00 75 1014.7
20260904082944 21 0 0.0 0.0 0.00 0.00 0.00 75 1014.7
20260904081946 20 0 0.0 0.0 0.00 0.00 0.00 76 1015.0
20260904081445 21 0 0.0 0.0 0.00 0.00 0.00 75 1015.0
20260904080944 21 0 0.0 0.0 0.00 0.00 0.00 76 1015.1
20260904080444 21 0 0.0 0.0 0.00 0.00 0.00 75 1014.9
20260904075944 20 0 0.0 0.0 0.00 0.00 0.00 77 1014.9
20260904075444 20 0 0.0 0.0 0.00 0.00 0.00 79 1015.0
20260904074944 19 0 0.0 0.0 0.00 0.00 0.00 80 1015.0
20260904074445 19 0 0.0 0.0 0.00 0.00 0.00 79 1015.1
20260904073946 18 0 0.0 0.0 0.00 0.00 0.00 80 1015.1
20260904073444 19 0 0.0 0.0 0.00 0.00 0.00 80 1015.0
20260904072944 18 0 0.0 0.0 0.00 0.00 0.00 80 1015.1
20260904071944 18 0 0.0 0.0 0.00 0.00 0.00 80 1015.3
20260904071444 18 0 0.0 0.0 0.00 0.00 0.00 81 1015.4
20260904070946 18 0 0.0 0.0 0.00 0.00 0.00 81 1015.3
20260904070445 18 0 0.0 0.0 0.00 0.00 0.00 81 1015.2
20260904065945 18 0 0.0 0.0 0.00 0.00 0.00 81 1015.3
20260904065445 18 0 0.0 0.0 0.00 0.00 0.00 82 1015.5
20260904064944 18 0 0.0 0.0 0.00 0.00 0.00 81 1015.4
20260904064444 18 0 0.0 0.0 0.00 0.00 0.00 81 1015.4
20260904063944 17 0 0.0 0.0 0.00 0.00 0.00 82 1015.2
20260904063445 17 0 0.0 0.0 0.00 0.00 0.00 82 1015.3
20260904062946 17 0 0.0 0.0 0.00 0.00 0.00 82 1015.3
20260904062445 17 0 0.0 0.0 0.00 0.00 0.00 82 1015.3
20260904061945 17 0 0.0 0.0 0.00 0.00 0.00 83 1015.3
20260904061445 17 0 0.0 0.0 0.00 0.00 0.00 84 1015.3
20260904060945 17 0 0.0 0.0 0.00 0.00 0.00 83 1015.1
20260904060446 17 0 0.0 0.0 0.00 0.00 0.00 84 1015.1
20260904055945 17 0 0.0 0.0 0.00 0.00 0.00 84 1015.1
20260904055445 17 0 0.0 0.0 0.00 0.00 0.00 84 1014.9
20260904054944 16 0 0.0 0.0 0.00 0.00 0.00 84 1014.9
20260904054445 17 0 0.0 0.0 0.00 0.00 0.00 83 1014.8
20260904053945 17 0 0.0 0.0 0.00 0.00 0.00 83 1014.7
20260904053445 17 0 0.0 0.0 0.00 0.00 0.00 83 1015.0
20260904052945 16 0 0.0 0.0 0.00 0.00 0.00 83 1015.1
20260904052445 16 0 0.0 0.0 0.00 0.00 0.00 83 1015.0
20260904051944 16 0 0.0 0.0 0.00 0.00 0.00 84 1015.1
20260904050944 16 0 0.0 0.0 0.00 0.00 0.00 84 1015.0
20260904050446 16 0 0.0 0.0 0.00 0.00 0.00 84 1014.9
20260904045945 16 0 0.0 0.0 0.00 0.00 0.00 84 1014.8
20260904045445 16 0 0.0 0.0 0.00 0.00 0.00 85 1015.0
20260904044945 16 0 0.0 0.0 0.00 0.00 0.00 85 1015.0
20260904044446 16 0 0.0 0.0 0.00 0.00 0.00 85 1015.3
20260904043945 16 0 0.0 0.0 0.00 0.00 0.00 85 1015.2
20260904043445 16 0 0.0 0.0 0.00 0.00 0.00 85 1015.1
20260904042945 16 0 0.0 0.0 0.00 0.00 0.00 85 1015.0
20260904041945 15 0 0.0 0.0 0.00 0.00 0.00 86 1014.8
20260904041445 15 0 0.0 0.0 0.00 0.00 0.00 86 1014.9
20260904040945 15 0 0.0 0.0 0.00 0.00 0.00 87 1014.9
20260904035945 15 0 0.0 0.0 0.00 0.00 0.00 85 1015.0
20260904035445 16 0 0.0 0.0 0.00 0.00 0.00 85 1015.0
20260904034947 16 0 0.0 0.0 0.00 0.00 0.00 85 1015.1
20260904034445 16 0 0.0 0.0 0.00 0.00 0.00 85 1015.2
20260904033945 16 0 0.0 0.0 0.00 0.00 0.00 85 1015.2
20260904033445 16 0 0.0 0.0 0.00 0.00 0.00 85 1015.2
20260904032446 16 0 0.0 0.0 0.00 0.00 0.00 85 1015.1
20260904031946 16 0 0.0 0.0 0.00 0.00 0.00 85 1015.0
20260904030947 16 0 0.0 0.0 0.00 0.00 0.00 84 1015.0
20260904030445 16 0 0.0 0.0 0.00 0.00 0.00 84 1015.0
20260904025946 16 0 0.0 0.0 0.00 0.00 0.00 83 1015.0
20260904023945 16 0 0.0 0.0 0.00 0.00 0.00 82 1015.2
20260904022946 16 0 0.0 0.0 0.00 0.00 0.00 81 1015.1
20260904021445 16 0 0.0 0.0 0.00 0.00 0.00 81 1015.1
20260904020447 16 0 0.0 0.0 0.00 0.00 0.00 82 1015.0
20260904015946 16 0 0.0 0.0 0.00 0.00 0.00 82 1015.1
20260904015445 16 0 0.0 0.0 0.00 0.00 0.00 82 1015.1
20260904014947 16 0 0.0 0.0 0.00 0.00 0.00 82 1015.2
20260904014446 16 0 0.0 0.0 0.00 0.00 0.00 82 1015.1
20260904013946 16 0 0.0 0.0 0.00 0.00 0.00 83 1015.1
20260904013446 16 0 0.0 0.0 0.00 0.00 0.00 84 1015.1
20260904012945 16 0 0.0 0.0 0.00 0.00 0.00 84 1015.1
20260904010945 15 0 0.0 0.0 0.00 0.00 0.00 86 1015.2
20260904010445 15 0 0.0 0.0 0.00 0.00 0.00 87 1015.2
20260904005945 15 0 0.0 0.0 0.00 0.00 0.00 87 1015.2
20260904005445 15 0 0.0 0.0 0.00 0.00 0.00 87 1015.2
20260904004945 15 0 0.0 0.0 0.00 0.00 0.00 87 1015.2
20260904003945 15 0 0.0 0.0 0.00 0.00 0.00 87 1015.3
20260904003445 15 0 0.0 0.0 0.00 0.00 0.00 87 1015.3
20260904002945 15 0 0.0 0.0 0.00 0.00 0.00 87 1015.4
20260904002445 15 0 0.0 0.0 0.00 0.00 0.00 88 1015.3
20260904001947 15 0 0.0 0.0 0.00 0.00 0.00 88 1015.3
20260904001446 15 0 0.0 0.0 0.00 0.00 0.00 88 1015.3
20260904000946 15 0 0.0 0.0 0.00 0.00 0.00 88 1015.4
20260903235946 15 0 0.0 0.0 0.00 0.00 0.00 88 1015.5
20260903235446 15 0 0.0 0.0 0.00 0.00 0.00 88 1015.4
20260903234946 15 0 0.0 0.0 0.00 0.00 0.00 88 1015.5
20260903233946 15 0 0.0 0.0 0.00 0.00 0.00 88 1015.5
20260903233446 15 0 0.0 0.0 0.00 0.00 0.00 88 1015.5
20260903232447 15 0 0.0 0.0 0.00 0.00 0.00 88 1015.6
20260903231946 15 0 0.0 0.0 0.00 0.00 0.00 88 1015.7
20260903231446 15 0 0.0 0.0 0.00 0.00 0.00 88 1015.8
20260903230445 15 0 0.0 0.0 0.00 0.00 0.00 89 1015.8
20260903225446 15 0 0.0 0.0 0.00 0.00 0.00 90 1015.9
20260903224946 15 0 0.0 0.0 0.00 0.00 0.00 89 1016.0
20260903224446 15 0 0.0 0.0 0.00 0.00 0.00 90 1016.0
20260903223946 15 0 0.0 0.0 0.00 0.00 0.00 90 1015.9
20260903221447 14 0 0.0 0.0 0.00 0.00 0.00 91 1015.9
20260903220946 14 0 0.0 0.0 0.00 0.00 0.00 91 1015.8
20260903215949 14 0 0.0 0.0 0.00 0.00 0.00 91 1015.9
20260903215447 14 0 0.0 0.0 0.00 0.00 0.00 91 1016.0
20260903214947 13 0 0.0 0.0 0.00 0.00 0.00 91 1016.0
20260903214448 13 0 0.0 0.0 0.00 0.00 0.00 91 1016.0
20260903213946 13 0 0.0 0.0 0.00 0.00 0.00 91 1016.0
20260903212946 13 0 0.0 0.0 0.00 0.00 0.00 91 1016.0
20260903212447 13 0 0.0 0.0 0.00 0.00 0.00 91 1016.0
20260903211947 13 0 0.0 0.0 0.00 0.00 0.00 91 1016.1
20260903211447 13 0 0.0 0.0 0.00 0.00 0.00 91 1016.1
20260903210946 13 0 0.0 0.0 0.00 0.00 0.00 90 1016.0
20260903210446 13 0 0.0 0.0 0.00 0.00 0.00 90 1016.0
20260903205446 13 0 0.0 0.0 0.00 0.00 0.00 90 1016.0
20260903204946 13 0 0.0 0.0 0.00 0.00 0.00 90 1015.9
20260903204447 13 0 0.0 0.0 0.00 0.00 0.00 90 1016.0
20260903203947 13 0 0.0 0.0 0.00 0.00 0.00 90 1016.0
20260903203447 13 0 0.0 0.0 0.00 0.00 0.00 90 1016.0
20260903202947 13 0 0.0 0.0 0.00 0.00 0.00 90 1015.8
20260903202447 13 0 0.0 0.0 0.00 0.00 0.00 89 1016.0
20260903201447 13 0 0.0 0.0 0.00 0.00 0.00 89 1016.2
20260903200947 13 0 0.0 0.0 0.00 0.00 0.00 89 1016.1
20260903200446 13 0 0.0 0.0 0.00 0.00 0.00 89 1016.1
20260903195446 13 0 0.0 0.0 0.00 0.00 0.00 89 1016.0
20260903193947 14 0 0.0 0.0 0.00 0.00 0.00 88 1016.1
20260903191947 14 0 0.0 0.0 0.00 0.00 0.00 87 1016.2
20260903191447 14 0 0.0 0.0 0.00 0.00 0.00 87 1016.3
20260903190947 14 0 0.0 0.0 0.00 0.00 0.00 87 1016.2
20260903190447 14 0 0.0 0.0 0.00 0.00 0.00 87 1016.3
20260903185947 14 0 0.0 0.0 0.00 0.00 0.00 87 1016.3
20260903185447 14 0 0.0 0.0 0.00 0.00 0.00 86 1016.4
20260903184947 14 0 0.0 0.0 0.00 0.00 0.00 86 1016.4
20260903183947 15 0 0.0 0.0 0.00 0.00 0.00 85 1016.5
20260903183447 15 0 0.0 0.0 0.00 0.00 0.00 84 1016.5
20260903182449 16 0 0.0 0.0 0.00 0.00 0.00 83 1016.5
20260903181947 16 0 0.0 0.0 0.00 0.00 0.00 83 1016.4
20260903181447 16 0 0.0 0.0 0.00 0.00 0.00 82 1016.4
20260903180949 16 0 0.0 0.0 0.00 0.00 0.00 82 1016.4
20260903180447 16 0 0.0 0.0 0.00 0.00 0.00 82 1016.4
20260903175947 16 0 0.0 0.0 0.00 0.00 0.00 81 1016.4
20260903175449 16 0 0.0 0.0 0.00 0.00 0.00 81 1016.4
20260903174947 16 0 0.0 0.0 0.00 0.00 0.00 80 1016.4
20260903174447 16 0 0.0 0.0 0.00 0.00 0.00 80 1016.4
20260903173447 16 0 0.0 0.0 0.00 0.00 0.00 79 1016.4
20260903172947 17 0 0.0 0.0 0.00 0.00 0.00 79 1016.2
20260903172447 17 0 0.0 0.0 0.00 0.00 0.00 78 1016.2
20260903171947 17 0 0.0 0.0 0.00 0.00 0.00 77 1016.2
20260903171447 17 0 0.0 0.0 0.00 0.00 0.00 78 1016.3
20260903170947 18 0 0.0 0.0 0.00 0.00 0.00 78 1016.3
20260903164449 18 0 0.0 0.0 0.00 0.00 0.00 74 1016.2
20260903163447 20 0 0.0 0.0 0.00 0.00 0.00 72 1016.1
20260903162947 20 0 0.0 0.0 0.00 0.00 0.00 69 1016.1
20260903162448 20 0 0.0 0.0 0.00 0.00 0.00 69 1016.2
20260903161948 20 0 0.0 0.0 0.00 0.00 0.00 69 1016.1
20260903161448 20 0 0.0 0.0 0.00 0.00 0.00 70 1016.1
20260903160948 20 0 0.0 0.0 0.00 0.00 0.00 71 1016.1
20260903160448 20 0 0.0 0.0 0.00 0.00 0.00 71 1016.1
20260903155948 20 0 0.0 0.0 0.00 0.00 0.00 71 1016.0
20260903154948 20 0 0.0 0.0 0.00 0.00 0.00 70 1016.2
20260903154448 21 0 0.0 0.0 0.00 0.00 0.00 69 1016.2
20260903153949 21 0 0.0 0.0 0.00 0.00 0.00 68 1016.2
20260903153448 21 0 0.0 0.0 0.00 0.00 0.00 67 1016.2
20260903152948 21 0 0.0 0.0 0.00 0.00 0.00 67 1016.2
20260903152448 21 0 0.0 0.0 0.00 0.00 0.00 67 1016.3
20260903151948 21 0 0.0 0.0 0.00 0.00 0.00 67 1016.3
20260903151447 21 0 0.0 0.0 0.00 0.00 0.00 67 1016.3